Date,TemperatureHighF,TemperatureAvgF,TemperatureLowF,DewpointHighF,DewpointAvgF,DewpointLowF,HumidityHigh,HumidityAvg,HumidityLow,PressureMaxIn,PressureMinIn,WindSpeedMaxMPH,WindSpeedAvgMPH,GustSpeedMaxMPH,PrecipitationSumIn
2013-2-1,39.2,34.5,24.6,30.0,16.5,9.0,69,49,31,30.38,29.92,17,3,24,0.00
2013-2-2,42.8,32.3,20.8,35.0,21.4,12.0,97,68,35,30.40,30.06,12,2,18,0.00
2013-2-3,51.0,40.2,30.3,35.0,28.8,23.0,99,67,36,30.05,29.87,11,2,21,0.00
2013-2-4,48.7,37.1,25.1,29.0,24.9,21.0,89,64,40,30.14,30.01,8,2,12,0.00
2013-2-5,63.0,46.8,34.1,43.0,36.0,29.0,92,68,45,30.00,29.88,10,1,14,0.00
2013-2-6,62.6,47.4,33.0,40.0,32.2,23.0,100,62,24,30.21,29.98,7,1,9,0.00
2013-2-7,44.5,40.1,37.3,39.0,33.5,27.0,100,80,51,30.26,30.02,11,4,16,0.55
2013-2-8,57.5,45.5,37.3,49.0,38.4,28.0,100,79,49,30.12,29.88,10,2,16,0.01
2013-2-9,58.0,42.8,27.3,29.0,25.0,20.0,91,54,24,30.33,30.11,4,1,12,0.00
2013-2-10,55.2,43.4,32.7,44.0,32.0,25.0,99,68,34,30.44,30.19,8,1,14,0.14
2013-2-11,55.3,48.7,41.5,55.0,48.7,42.0,100,100,99,30.16,29.96,4,1,14,0.11
2013-2-12,57.1,47.5,40.3,49.0,35.3,-99.9,100,70,38,30.10,29.89,4,-10,6,0.04
2013-2-13,47.0,43.2,38.2,46.0,41.6,32.0,100,95,74,29.91,29.67,6,1,12,0.04
2013-2-14,50.0,39.4,27.5,36.0,32.3,27.0,100,78,54,30.07,29.89,9,1,15,0.00
2013-2-15,59.7,44.0,27.3,39.0,33.5,27.0,100,72,39,30.11,29.93,12,2,16,0.00
2013-2-16,43.9,35.4,28.1,33.0,28.6,18.0,98,77,61,30.03,29.83,8,1,14,0.03
2013-2-17,40.8,30.6,18.5,22.0,14.7,12.0,92,55,31,30.28,30.03,10,1,17,0.04
2013-2-18,52.6,37.7,21.5,28.0,23.3,13.0,97,59,37,30.40,30.22,9,2,16,0.00
2013-2-19,49.8,40.7,34.0,44.0,32.7,18.0,100,76,33,30.22,29.88,13,2,18,0.19
2013-2-20,54.8,40.2,25.3,29.0,18.0,11.0,93,45,18,30.12,30.03,6,1,11,0.00
2013-2-21,56.7,41.6,24.6,39.0,21.9,11.0,92,49,26,30.25,30.09,4,0,10,0.04
2013-2-22,40.9,37.0,35.5,39.0,36.9,36.0,100,99,89,30.30,30.13,7,1,9,0.21
2013-2-23,43.3,38.7,34.8,43.0,38.5,35.0,100,99,97,30.16,29.86,5,1,8,0.32
2013-2-24,62.1,48.7,36.9,44.0,36.1,27.0,100,68,29,30.02,29.86,7,1,9,0.00
2013-2-25,42.3,39.9,37.3,31.0,28.3,26.0,68,64,60,30.17,30.00,7,2,13,0.00
2013-2-26,38.8,34.3,31.0,39.0,33.8,28.0,100,98,70,30.08,29.62,11,3,18,1.01
2013-2-27,54.3,44.5,31.6,40.0,37.1,32.0,100,78,56,29.82,29.66,8,2,16,0.00
2013-2-28,47.1,39.4,30.2,35.0,29.3,26.0,99,69,46,29.91,29.72,13,2,24,0.00